RH
83 77 72 64 58 54 53 54 54 54 55 54 51 51 47 49 53 56 59 64 70 73 76 78 80 80 78 74 74 74 71 70 73 73 72 72 74 70 59 51 42 32 44
84 80 78 72 68 59 58 58 56 56 55 51 50 50 45 50 54 57 60 66 69 71 76 76 79 80 80 81 76 72 72 72 71 76 75 76 73 64 56 37 21 21 23
88 86 84 80 73 63 61 61 59 58 54 51 48 44 46 51 58 61 64 68 67 70 73 74 75 77 76 80 78 74 74 75 75 77 80 70 64 67 43 25 19 12 23
94 92 88 83 77 69 64 64 60 57 54 49 44 43 49 55 58 61 65 63 64 68 69 69 71 72 71 76 78 77 77 76 77 75 63 66 72 65 43 36 24 16 45
94 93 94 92 86 77 72 67 62 58 51 45 44 51 55 58 56 59 59 55 58 61 61 63 63 63 67 68 69 73 72 77 82 77 74 72 77 59 58 55 47 30 44
96 96 93 90 86 80 75 68 62 54 49 48 51 54 55 54 50 49 50 52 56 56 60 62 57 58 62 67 67 67 66 62 60 59 69 66 65 56 52 55 56 61 65
89 88 86 85 85 80 74 66 58 54 53 53 52 52 50 48 50 52 53 53 56 55 55 57 64 71 73 69 58 58 56 48 42 41 41 43 48 58 59 56 59 65 65
82 81 79 77 74 73 74 64 58 54 53 52 52 48 52 52 54 55 58 58 59 58 59 61 64 70 72 64 54 56 54 55 58 44 39 49 54 60 70 64 63 65 54
78 75 73 72 70 69 67 61 56 54 56 52 51 52 53 55 62 63 60 61 64 67 69 70 67 64 47 33 38 47 49 53 56 43 31 39 44 58 67 56 56 72 82
74 71 69 68 66 66 63 60 61 58 55 55 52 52 53 58 64 64 62 61 66 71 75 76 75 66 39 26 33 39 40 43 48 37 30 32 36 40 44 49 61 76 86
69 68 67 66 64 63 63 61 60 61 60 58 54 55 58 58 59 56 58 62 62 71 73 76 66 50 41 30 27 27 26 30 41 42 36 34 37 42 48 54 66 78 88
65 65 64 64 65 64 62 63 66 63 62 60 63 63 64 64 62 57 50 48 50 56 62 51 38 38 37 30 30 28 34 38 53 53 45 39 41 45 50 52 58 74 84
62 62 62 63 65 63 64 64 66 64 67 69 69 68 67 69 64 52 41 35 43 45 37 32 33 35 37 37 33 34 41 56 60 58 42 42 47 54 55 56 55 55 63
60 60 61 64 68 67 67 66 68 71 71 70 68 66 62 59 56 46 52 51 46 44 39 42 44 45 48 46 49 46 52 52 55 48 45 49 55 59 65 64 64 64 70
60 60 62 65 69 69 68 67 67 64 63 64 62 60 57 55 43 37 36 44 49 47 50 56 61 60 65 63 62 51 54 57 60 53 56 58 63 69 72 72 74 72 78
61 62 63 65 67 66 66 66 64 62 61 59 56 52 51 46 43 39 46 36 40 45 62 62 70 72 64 65 59 54 57 59 58 59 65 66 69 74 77 80 79 76 83
66 65 66 66 65 63 63 63 62 59 58 57 55 52 49 44 42 37 35 35 40 58 61 61 62 55 52 52 54 58 56 55 55 67 73 74 73 78 84 85 79 81 85
64 63 65 65 64 63 62 61 60 59 60 58 54 49 47 46 44 41 36 41 62 77 73 55 52 47 52 57 64 63 63 56 67 70 76 77 75 84 88 90 90 88 93
61 64 62 62 62 61 62 61 60 63 61 60 69 70 64 55 48 50 54 56 60 76 73 75 60 56 48 51 60 61 60 66 67 72 78 78 82 85 89 93 96 100 96
71 63 60 60 62 62 64 65 65 66 69 73 76 76 95 97 85 78 86 70 55 64 68 60 51 60 67 65 61 59 66 71 74 80 82 85 88 95 94 88 91 99 98
84 84 79 75 75 74 72 76 87 95 98 98 97 90 82 86 79 78 80 91 95 96 86 71 69 62 58 55 56 60 64 65 71 81 89 91 93 99 95 87 85 86 88
99 99 91 90 90 92 96 97 99 97 94 88 87 89 93 97 96 99 99 98 98 96 69 58 62 57 54 50 49 53 58 69 83 85 97 100 99 100 100 85 84 88 94
100 98 100 99 99 99 100 100 100 100 99 98 98 98 98 98 98 98 96 84 66 61 51 48 45 45 44 46 51 57 67 75 79 82 99 97 95 90 86 95 94 100 100
99 97 98 92 92 94 96 98 98 97 97 96 96 94 92 90 84 82 73 59 51 47 47 50 52 51 48 50 58 66 68 70 86 92 97 96 92 89 93 96 100 100 100
86 85 82 79 78 78 78 77 76 76 79 82 83 84 80 75 70 63 56 54 52 52 49 50 53 54 54 57 62 68 73 80 89 95 96 93 92 94 95 100 100 100 100
84 85 84 84 87 88 87 82 77 74 72 69 67 66 65 64 64 63 63 63 64 62 62 62 61 60 58 62 65 73 81 85 96 99 93 94 92 92 94 98 95 97 100
Wind_Speed
37 35 36 44 43 41 38 34 31 28 28 26 25 23 21 21 19 18 17 16 15 15 14 13 13 12 13 11 10 10 8 6 5 2 3 5 5 8 9 10 10 12 10
37 35 36 37 42 42 38 37 34 31 29 27 25 22 22 22 20 20 19 18 17 17 16 14 14 13 12 12 11 12 10 9 6 5 3 2 4 7 9 12 13 14 13
36 36 35 37 40 44 42 38 35 33 30 27 26 26 25 23 22 20 19 18 17 17 16 15 15 14 12 12 12 12 11 9 7 6 3 1 3 8 10 12 14 16 10
33 36 38 41 44 44 43 38 36 34 31 28 27 26 25 24 22 21 20 19 18 17 16 15 15 14 14 14 12 11 11 8 8 6 3 2 2 6 9 15 19 20 8
30 28 27 25 31 36 38 37 36 32 30 29 28 27 25 24 24 23 22 21 20 18 16 15 14 13 12 12 13 12 11 11 10 6 4 2 2 5 9 11 13 16 4
23 23 25 28 31 34 35 36 33 31 31 29 30 29 28 27 25 24 24 22 20 19 19 16 14 13 13 12 11 11 10 11 10 7 5 2 2 3 6 10 13 10 6
27 28 30 29 31 33 34 32 32 33 31 31 29 28 30 29 27 25 23 23 22 20 19 19 18 16 14 13 11 10 9 7 6 6 6 4 2 2 4 7 9 11 11
25 25 26 26 27 29 29 31 32 33 32 33 32 32 31 28 27 25 24 23 22 21 20 20 19 18 16 14 12 11 10 8 7 5 3 2 1 2 5 7 9 12 17
24 25 26 28 29 30 32 32 32 32 33 34 34 32 31 29 27 26 25 24 23 22 21 20 19 17 15 14 14 13 11 9 8 4 1 0 1 2 5 8 10 11 11
22 23 23 25 28 31 32 33 35 35 34 34 32 32 32 30 28 27 26 26 24 23 21 20 20 17 16 14 14 14 12 11 10 6 3 2 3 3 5 6 7 8 8
20 20 20 22 25 27 26 30 32 32 31 31 30 32 31 30 29 28 27 27 28 26 25 23 21 19 17 15 13 13 10 9 9 6 4 4 4 5 5 5 6 7 8
18 19 21 23 24 25 27 28 27 29 29 29 31 30 30 28 27 28 27 27 26 28 28 25 22 20 18 16 14 11 10 9 9 7 7 7 7 7 7 9 10 10 10
17 18 20 21 24 25 26 27 28 29 29 29 29 28 30 27 27 27 27 26 26 26 25 22 21 21 19 17 14 12 11 12 11 11 10 10 9 9 10 13 14 14 15
18 19 19 21 23 23 24 26 27 27 23 23 23 23 23 27 28 28 27 26 24 24 21 22 23 22 21 18 16 14 15 14 15 14 13 11 11 10 12 13 16 18 19
13 16 18 19 20 22 24 26 28 30 31 26 25 24 24 24 35 34 31 29 30 27 22 21 21 23 22 21 19 17 16 16 17 16 16 14 13 13 14 13 14 16 17
8 11 14 16 17 18 20 18 18 21 24 24 25 29 29 28 25 32 30 30 28 26 24 25 24 24 25 25 23 20 18 19 19 17 18 15 15 16 16 14 15 16 21
4 6 9 12 15 16 16 18 15 11 13 20 21 21 23 25 24 24 29 26 25 23 24 25 23 25 27 26 23 21 21 20 16 18 17 16 15 15 16 16 17 19 23
7 3 4 7 9 12 14 16 16 17 15 14 14 15 16 16 17 17 22 21 20 20 22 21 21 26 26 24 23 22 21 17 18 17 16 15 14 16 17 19 21 22 22
9 5 2 2 3 6 8 10 12 13 14 15 13 9 10 12 14 18 20 24 24 23 22 24 26 26 26 25 23 20 19 17 16 15 16 16 14 15 17 19 22 19 20
15 11 7 4 3 2 2 4 5 7 8 9 13 9 13 15 17 18 18 20 19 21 23 23 26 29 27 24 22 20 18 16 16 16 16 15 15 14 16 18 18 19 22
13 12 10 9 6 4 4 6 7 9 11 13 15 16 22 24 23 21 21 22 24 24 23 27 31 27 24 22 21 20 19 18 17 16 16 15 14 15 15 17 20 22 24
10 9 7 5 4 4 5 6 7 10 12 15 17 19 18 19 22 24 22 21 22 21 23 28 27 25 23 22 21 20 20 19 18 17 17 14 13 15 18 20 22 23 24
9 8 6 5 5 5 5 7 10 11 12 13 13 13 14 17 17 16 15 16 22 26 24 23 24 24 22 21 21 20 19 19 18 17 15 14 14 17 19 21 22 22 19
11 10 10 9 8 7 8 8 9 10 11 12 14 16 16 15 18 21 23 26 24 24 23 23 23 25 23 23 21 19 17 15 15 15 14 14 16 18 20 23 23 24 25
10 11 12 12 13 14 15 16 17 18 18 18 19 20 22 23 25 26 24 22 21 22 22 22 23 22 22 22 21 19 17 13 15 16 15 16 18 20 21 22 19 20 25
13 13 13 13 14 15 15 16 17 17 18 18 19 21 22 22 21 20 19 19 19 19 19 19 19 20 20 20 19 19 18 14 18 17 17 17 19 21 21 21 24 26 26
Wind_Direction
206 204 201 207 215 214 215 213 215 215 210 210 210 206 209 211 211 209 204 200 195 195 195 195 195 192 190 189 193 186 197 210 213 180 16 340 348 7 22 26 18 15 15
204 198 203 208 211 215 213 213 212 212 210 209 207 211 210 209 211 207 200 197 197 193 193 194 193 192 196 199 194 188 199 208 199 208 245 323 3 28 17 14 17 19 9
207 203 205 210 213 214 214 210 208 206 205 205 208 210 206 204 208 205 199 195 200 195 196 196 192 191 191 184 185 184 183 187 197 195 205 5 64 18 5 10 15 16 19
198 201 202 207 211 211 212 207 204 203 204 205 208 208 208 202 203 201 197 196 194 192 193 198 197 198 197 187 190 190 180 174 166 163 143 109 47 3 3 5 6 10 44
195 198 207 206 203 206 208 205 203 203 204 206 204 203 203 202 199 197 197 194 192 188 190 193 195 195 196 193 186 178 175 170 168 168 156 142 69 17 11 359 356 1 9
195 197 197 202 207 208 206 203 202 201 202 201 202 200 197 201 201 199 198 192 192 192 186 185 185 181 177 179 173 173 177 178 173 170 160 147 100 32 10 2 356 356 340
198 200 204 204 205 206 204 200 199 201 199 199 199 203 202 201 199 197 197 195 194 193 190 183 176 177 176 177 172 171 171 170 166 162 156 153 125 28 358 349 346 333 320
197 199 204 201 198 201 200 200 200 201 200 200 204 198 207 200 198 196 196 196 196 196 195 191 188 186 189 188 180 175 176 174 172 165 145 132 4 340 334 327 322 317 315
197 199 204 204 200 201 200 201 202 201 205 205 206 201 203 201 196 196 195 195 195 196 197 196 197 193 190 190 187 182 179 173 177 180 208 278 286 277 293 309 320 328 328
205 208 209 209 207 203 199 196 201 205 207 208 206 207 208 202 199 200 199 197 193 194 195 199 201 201 194 191 193 190 187 190 197 208 218 245 270 288 304 311 316 318 322
219 217 216 217 215 215 203 202 202 204 207 206 207 210 209 206 202 202 203 201 200 196 197 197 199 198 197 197 198 198 198 199 204 229 262 288 293 298 306 318 320 310 300
222 220 220 220 217 213 210 207 209 206 204 206 209 209 210 209 209 206 207 209 207 205 204 202 199 197 198 200 202 203 207 214 223 241 263 272 280 292 304 319 323 309 293
217 216 218 219 216 216 208 205 201 205 201 202 203 206 209 208 209 211 211 210 211 212 213 208 202 202 202 205 209 215 216 217 224 233 250 265 277 291 302 314 321 323 314
222 218 217 214 212 214 213 212 203 198 196 195 197 202 202 208 210 209 209 210 212 213 210 205 202 203 207 213 217 226 223 227 231 240 249 261 271 279 297 311 319 329 330
234 229 222 219 215 211 214 213 210 215 208 199 203 201 193 200 214 211 206 210 212 208 201 199 197 194 201 215 224 228 229 228 232 241 249 258 268 275 288 301 306 319 304
246 235 228 218 212 213 214 211 219 228 220 217 219 222 221 226 219 217 216 216 214 207 198 201 207 208 215 222 227 230 232 234 237 244 249 256 269 270 280 284 293 297 295
302 250 225 216 210 205 206 206 194 206 219 227 228 232 235 238 231 231 217 213 213 203 208 210 216 225 230 232 232 234 240 242 249 250 251 255 266 271 269 279 288 293 295
19 350 257 236 227 222 222 218 210 195 186 201 217 226 229 227 221 213 211 204 198 200 212 214 228 236 236 238 239 241 243 247 243 245 248 257 268 271 273 277 284 291 298
28 24 358 288 261 249 234 224 215 206 194 188 176 184 188 196 195 202 201 200 197 200 219 229 233 238 244 248 247 246 247 245 248 249 250 259 264 266 274 283 288 286 289
48 46 49 61 100 131 185 194 185 183 177 193 196 214 231 204 200 198 200 209 216 231 236 237 243 246 247 247 249 248 246 246 247 246 251 258 263 271 277 285 289 285 293
50 53 61 72 80 102 145 177 200 214 220 223 226 224 214 207 204 203 209 218 226 232 240 246 251 250 247 247 246 243 243 246 246 245 246 251 256 256 267 279 287 291 291
17 14 11 1 332 297 270 250 236 228 218 212 212 213 215 222 229 235 239 242 240 236 246 254 258 256 253 247 240 240 243 246 244 248 244 239 244 262 269 280 285 285 286
6 7 9 358 333 313 280 267 256 249 244 241 236 231 229 234 238 241 239 242 248 253 257 256 257 256 249 243 240 240 242 247 250 244 236 246 256 265 276 275 278 279 282
318 317 312 307 300 289 279 274 267 260 255 253 251 248 241 234 236 241 250 262 265 263 261 257 254 252 247 242 238 242 246 249 235 231 235 247 261 268 272 276 278 284 288
327 319 311 303 293 288 285 278 272 267 264 263 263 261 261 262 266 271 272 271 271 267 265 263 260 253 244 238 238 240 240 247 230 231 240 254 264 271 274 279 273 277 284
321 318 316 313 310 305 298 290 285 282 278 274 273 272 272 272 274 275 276 276 273 269 267 263 259 253 243 239 241 241 238 253 231 234 247 259 267 273 279 283 287 288 285